EW2244 Weather Reports


Display with metric or nautical units.
time (UTC)temp
F
wind
direction
speed
MPH
gust
MPH
rain 1hr
in
rain 24hr
in
rain mn
in
humidity
%
barometer
mb
20260505002152 58 220 0.0 2.0 0.00 0.00 0.00 70 1014.9
20260505001136 58 220 0.0 2.0 0.00 0.00 0.00 69 1015.1
20260505000141 58 220 0.0 1.0 0.00 0.00 0.00 69 1015.2
20260504235125 58 220 0.0 0.0 0.00 0.00 0.00 68 1015.3
20260504234135 59 220 0.0 0.0 0.00 0.00 0.00 68 1015.5
20260504233142 59 220 0.0 1.0 0.00 0.00 0.00 69 1015.5
20260504232127 59 220 0.0 0.0 0.00 0.00 0.00 68 1015.6
20260504231135 58 220 0.0 0.0 0.00 0.00 0.00 67 1015.8
20260504230125 58 220 0.0 0.0 0.00 0.00 0.00 67 1015.8
20260504225131 59 220 0.0 0.0 0.00 0.00 0.00 68 1015.8
20260504224137 59 220 0.0 1.0 0.00 0.00 0.00 67 1016.0
20260504223124 59 220 0.0 1.0 0.00 0.00 0.00 68 1016.1
20260504222155 59 220 0.0 0.0 0.00 0.00 0.00 69 1016.2
20260504221140 58 220 0.0 2.0 0.00 0.00 0.00 70 1016.2
20260504220125 59 220 0.0 2.0 0.00 0.00 0.00 70 1016.4
20260504215132 59 220 0.0 2.0 0.00 0.00 0.00 70 1016.4
20260504214140 59 220 1.0 3.0 0.00 0.00 0.00 70 1016.5
20260504213124 59 220 0.0 2.0 0.00 0.00 0.00 70 1016.6
20260504212130 59 220 0.0 3.0 0.00 0.00 0.00 70 1016.7
20260504211137 59 220 0.0 3.0 0.00 0.00 0.00 69 1016.7
20260504210125 60 220 0.0 2.0 0.00 0.00 0.00 67 1016.7
20260504205129 60 220 1.0 3.0 0.00 0.00 0.00 67 1016.8
20260504204133 60 220 1.0 2.0 0.00 0.00 0.00 65 1016.8
20260504203138 61 220 0.0 3.0 0.00 0.00 0.00 64 1016.9
20260504202142 61 220 0.0 1.0 0.00 0.00 0.00 65 1016.9
20260504201127 61 219 0.0 0.0 0.00 0.00 0.00 62 1016.8
20260504200128 61 220 0.0 0.0 0.00 0.00 0.00 61 1016.8
20260504195131 61 219 0.0 1.0 0.00 0.00 0.00 62 1016.7
20260504194139 61 220 0.0 0.0 0.00 0.00 0.00 61 1016.6
20260504193125 61 220 0.0 1.0 0.00 0.00 0.00 61 1016.6
20260504192144 61 220 0.0 3.0 0.00 0.00 0.00 59 1016.5
20260504191127 62 219 0.0 2.0 0.00 0.00 0.00 58 1016.4
20260504190135 62 219 0.0 2.0 0.00 0.00 0.00 58 1016.3
20260504185138 62 218 0.0 1.0 0.00 0.00 0.00 57 1016.3
20260504184201 63 218 0.0 2.0 0.00 0.00 0.00 56 1016.2
20260504183144 63 218 0.0 2.0 0.00 0.00 0.00 58 1016.4
20260504182125 63 218 0.0 2.0 0.00 0.00 0.00 60 1016.3
20260504181131 64 218 0.0 3.0 0.00 0.00 0.00 60 1016.3
20260504180136 64 218 0.0 2.0 0.00 0.00 0.00 58 1016.2
20260504175142 64 218 1.0 2.0 0.00 0.00 0.00 60 1016.3
20260504174124 65 216 1.0 2.0 0.00 0.00 0.00 56 1016.3
20260504173154 65 216 0.0 1.0 0.00 0.00 0.00 54 1016.2
20260504172138 66 216 0.0 1.0 0.00 0.00 0.00 53 1016.3
20260504171124 66 216 0.0 0.0 0.00 0.00 0.00 50 1016.2
20260504170130 66 216 0.0 1.0 0.00 0.00 0.00 48 1016.3
20260504160126 67 148 0.0 2.0 0.00 0.00 0.00 47 1016.4
20260504151139 68 176 1.0 3.0 0.00 0.00 0.00 44 1016.8
20260504150124 68 170 0.0 3.0 0.00 0.00 0.00 48 1016.9
20260504141131 68 250 1.0 4.0 0.00 0.00 0.00 44 1017.2
20260504140140 69 118 0.0 4.0 0.00 0.00 0.00 45 1017.3
20260504130138 69 94 2.0 4.0 0.00 0.00 0.00 45 1017.8
20260504120138 69 117 1.0 5.0 0.00 0.00 0.00 46 1018.1
20260504110137 68 148 1.0 6.0 0.00 0.00 0.00 45 1018.3
20260504100124 65 29 2.0 5.0 0.00 0.00 0.00 53 1018.7
20260504081139 62 45 0.0 1.0 0.00 0.00 0.00 66 1018.6
20260504080203 62 45 0.0 1.0 0.00 0.00 0.00 66 1018.6
20260504070132 61 11 0.0 1.0 0.00 0.00 0.00 67 1018.4
20260504060131 58 144 0.0 2.0 0.00 0.00 0.00 74 1017.7
20260504050135 58 92 0.0 5.0 0.00 0.00 0.00 70 1017.2
20260504045142 58 74 0.0 3.0 0.00 0.00 0.00 70 1017.0
20260504044127 57 5 1.0 4.0 0.00 0.00 0.00 70 1017.1
20260504043138 57 190 0.0 4.0 0.00 0.00 0.00 72 1017.1
20260504042143 56 188 0.0 1.0 0.00 0.00 0.00 73 1017.0
20260504041130 56 188 0.0 2.0 0.00 0.00 0.00 72 1017.1
20260504040137 56 188 0.0 2.0 0.00 0.00 0.00 73 1017.1
20260504035129 56 188 0.0 1.0 0.00 0.00 0.00 74 1017.1
20260504034134 55 188 0.0 1.0 0.00 0.00 0.00 75 1017.1
20260504033201 56 188 0.0 3.0 0.00 0.00 0.00 76 1017.1
20260504032143 56 188 0.0 1.0 0.00 0.00 0.00 74 1017.0
20260504031133 56 188 0.0 1.0 0.00 0.00 0.00 76 1017.1
20260504030136 56 188 0.0 2.0 0.00 0.00 0.00 76 1017.1
20260504025142 56 188 0.0 2.0 0.00 0.00 0.00 76 1017.2
20260504024129 56 188 1.0 4.0 0.00 0.00 0.00 74 1017.3
20260504023139 56 188 1.0 2.0 0.00 0.00 0.00 75 1017.3
20260504022143 57 188 0.0 0.0 0.00 0.00 0.00 72 1017.3
20260504021129 57 188 0.0 2.0 0.00 0.00 0.00 73 1017.3
20260504020136 57 188 0.0 2.0 0.00 0.00 0.00 72 1017.3
20260504015147 57 188 0.0 0.0 0.00 0.00 0.00 72 1017.3
20260504014132 58 188 0.0 1.0 0.00 0.00 0.00 72 1017.4
20260504013200 58 188 0.0 1.0 0.00 0.00 0.00 71 1017.4
20260504012125 58 188 0.0 1.0 0.00 0.00 0.00 68 1017.3
20260504011157 58 188 0.0 2.0 0.00 0.00 0.00 70 1017.3
20260504010140 58 188 0.0 1.0 0.00 0.00 0.00 69 1017.4
20260504005127 58 188 0.0 2.0 0.00 0.00 0.00 70 1017.4
20260504004132 57 188 0.0 2.0 0.00 0.00 0.00 72 1017.4
20260504003143 58 188 0.0 1.0 0.00 0.00 0.00 70 1017.6